MST,Max TemperatureF,Mean TemperatureF,Min TemperatureF,Max Dew PointF,MeanDew PointF,Min DewpointF,Max Humidity, Mean Humidity, Min Humidity, Max Sea Level PressureIn, Mean Sea Level PressureIn, Min Sea Level PressureIn, Max VisibilityMiles, Mean VisibilityMiles, Min VisibilityMiles, Max Wind SpeedMPH, Mean Wind SpeedMPH, Max Gust SpeedMPH,PrecipitationIn, CloudCover, Events, WindDirDegrees
2011-11-1,62,45,28,32,24,18,85,53,18,30.09,29.96,29.81,10,10,10,15,4,22,0.00,1,,295
2011-11-2,48,37,27,28,20,16,76,56,30,30.48,30.21,29.81,10,10,10,22,11,28,0.00,0,,197
2011-11-3,52,34,19,23,18,15,92,61,25,30.50,30.36,30.17,10,10,10,8,3,,0.00,0,,48
2011-11-4,54,39,25,29,23,16,75,55,35,30.17,29.96,29.66,10,10,10,16,3,,0.00,4,,85
2011-11-5,48,38,28,36,29,25,100,86,42,30.00,29.73,29.47,10,5,0,25,13,36,0.15,8,Fog-Rain-Snow,230
2011-11-6,37,31,26,27,25,23,92,80,67,30.10,30.06,30.01,10,10,10,9,4,,0.00,7,,60
2011-11-7,41,34,28,32,29,26,100,90,55,30.05,29.95,29.87,10,5,0,12,5,17,0.05,8,Fog-Snow,53
2011-11-8,36,30,24,31,28,23,100,91,76,30.39,30.15,29.92,10,9,2,7,2,,0.00,7,Snow,48
2011-11-9,43,32,21,27,23,18,93,75,47,30.59,30.48,30.33,10,10,9,9,3,,0.00,2,,311
2011-11-10,46,32,19,27,21,15,88,68,33,30.64,30.50,30.35,10,10,10,6,2,,0.00,0,,315
2011-11-11,45,33,21,26,22,19,92,61,36,30.33,30.14,30.01,10,10,10,6,2,,0.00,3,,33
2011-11-12,50,40,30,27,25,20,85,57,31,30.03,29.94,29.85,10,10,10,17,4,26,0.00,7,,308
2011-11-13,41,38,35,37,34,26,100,88,55,29.95,29.89,29.83,10,8,4,16,9,20,0.15,7,Rain,239
2011-11-14,45,34,24,34,28,21,100,82,58,30.04,29.99,29.90,10,10,4,16,4,23,0.00,3,,37
2011-11-15,39,31,23,29,24,19,88,76,65,30.08,30.02,29.96,10,10,10,10,3,,0.00,1,,40
2011-11-16,48,34,21,24,15,5,92,57,18,30.40,30.21,30.02,10,10,10,14,3,,0.00,0,,265
2011-11-17,50,33,16,19,14,10,84,56,20,30.45,30.27,30.09,10,10,10,10,3,,0.00,0,,21
2011-11-18,50,34,19,24,20,16,85,64,32,30.09,29.96,29.81,10,10,10,10,3,,0.00,0,,71
2011-11-19,50,36,21,28,22,19,89,65,29,30.04,29.93,29.79,10,10,10,8,4,,0.00,2,,54
2011-11-20,51,38,25,29,25,19,85,66,29,30.19,30.09,29.98,10,10,10,10,3,,0.00,3,Rain,73
2011-11-21,64,48,32,38,33,27,96,74,37,30.22,30.10,29.96,10,9,0,12,4,,0.12,6,Rain-Thunderstorm,290
2011-11-22,45,36,27,35,30,25,100,84,57,30.51,30.32,30.17,10,5,0,8,2,,0.00,5,Fog,26
2011-11-23,62,43,24,29,24,19,92,62,25,30.49,30.34,30.19,10,10,10,6,1,,0.00,0,,33
2011-11-24,53,36,19,26,22,16,85,53,27,30.30,30.15,29.95,10,10,10,9,3,,0.00,3,,57
2011-11-25,51,42,33,36,27,14,100,66,24,30.08,29.95,29.81,10,8,0,21,6,26,0.06,3,Fog-Rain,294
2011-11-26,46,32,19,12,4,-6,68,31,14,30.58,30.36,30.09,10,10,10,20,11,26,0.00,0,,319
2011-11-27,46,30,15,16,12,9,77,55,24,30.73,30.60,30.51,10,10,10,7,3,,0.00,0,,348
2011-11-28,46,32,17,20,18,13,84,63,34,30.56,30.45,30.35,10,10,10,7,3,,0.00,0,,54
2011-11-29,52,38,25,24,20,18,85,59,26,30.46,30.35,30.26,10,10,10,8,4,,0.00,0,,39
2011-11-30,52,34,15,24,18,13,91,60,25,30.35,30.09,29.83,10,10,10,8,3,,0.00,0,,70